Flag for Netherlands Weather past 2 weeks in Eindhoven, Netherlands

Now
63 °F

Passing clouds.


Feels Like: 63 °F
Forecast: 47 / 64 °F
Wind: 14 mph from West

Location: Eindhoven Airport

Current Time: Aug 23, 2014 at 6:21:16 PM

Latest Report: Aug 23, 2014 at 5:55 PM


Visibility: N/A

Pressure: 29.95 "Hg

Humidity: 52%

Dew point: 45 °F

Location of EindhovenLocation

Historic Weather in Eindhoven — Graph

°F

Eindhoven temperature yesterday

Maximum temperature yesterday: 63 °F (at 10:55 AM)
Minimum temperature yesterday: 50 °F (at 2:55 AM)
Average temperature yesterday: 57 °F

Past Weeks' High & Low Weather Summary

 TemperatureHumidityPressure
High75 °F (Aug 9, 3:25 PM)100% (Aug 8, 10:25 PM)30.09 "Hg (Aug 8, 10:25 PM)
Low45 °F (Aug 20, 1:55 AM)46% (Aug 21, 2:55 PM)29.50 "Hg (Aug 10, 5:55 PM)
Average59 °F83%29.84 "Hg
* Reported Aug 8 4:03 PM — Aug 23 4:55 PM, Eindhoven, Weather by CustomWeather, © 2014

Note: Actual official high and low records may vary slightly from our data, if they occured in-between our weather recording intervals... More about our weather records

Advertising

Eindhoven weather history for previous 24 hours

 ConditionsComfort  
Time TempWeatherWind HumidityBarometerVisibility
4:55 PM
Aug 23
61 °FBroken clouds.13 mph59%29.92 "HgN/A
4:25 PM63 °FScattered clouds.14 mph52%29.92 "HgN/A
3:55 PM64 °FBroken clouds.13 mph49%29.92 "HgN/A
3:25 PM63 °FBroken clouds.12 mph56%29.92 "HgN/A
2:55 PM63 °FPartly sunny.14 mph59%29.92 "HgN/A
2:25 PM63 °FScattered clouds.6 mph77%29.92 "HgN/A
1:55 PM59 °FBroken clouds.3 mph77%29.92 "HgN/A
1:25 PM57 °FLight rain. Broken clouds.5 mph77%29.92 "HgN/A
12:55 PM55 °FBroken clouds.5 mph82%29.92 "HgN/A
12:25 PM54 °FThunderstorms. Broken clouds.6 mph77%29.92 "HgN/A
11:55 AM61 °FThunderstorms. Mostly cloudy.3 mph68%29.92 "HgN/A
11:25 AM61 °FPartly sunny.8 mph72%29.92 "HgN/A
10:55 AM59 °FScattered clouds.9 mph77%29.92 "HgN/A
10:25 AM59 °FOvercast.9 mph77%29.92 "HgN/A
9:55 AM57 °FPartly sunny.10 mph82%29.92 "HgN/A
9:25 AM57 °FMostly cloudy.10 mph88%29.89 "HgN/A
8:55 AM55 °FScattered clouds.10 mph88%29.89 "HgN/A
8:25 AM52 °FPassing clouds.6 mph100%29.89 "HgN/A
7:55 AM52 °FFog.3 mph100%29.89 "Hg5 mi
7:25 AM52 °FFog.3 mph94%29.89 "Hg4 mi
6:55 AM52 °FFog.5 mph94%29.89 "Hg4 mi
6:25 AM50 °FFog.3 mph100%29.89 "Hg3 mi
5:59 AM50 °FFog.2 mph100%29.86 "Hg3 mi
5:25 AM50 °FFog.5 mph100%29.89 "Hg4 mi
4:55 AM50 °FFog.7 mph100%29.89 "Hg3 mi
4:25 AM50 °FFog.5 mph100%29.89 "Hg2 mi
3:55 AM50 °FFog.6 mph100%29.89 "Hg2 mi
3:25 AM50 °FFog.5 mph100%29.89 "Hg3 mi
2:55 AM52 °FFog.5 mph100%29.89 "Hg4 mi
2:25 AM52 °FFog.5 mph100%29.89 "Hg4 mi
1:55 AM52 °FFog.6 mph100%29.89 "Hg6 mi
1:25 AM52 °FMostly cloudy.5 mph100%29.89 "HgN/A
12:55 AM52 °FPassing clouds.5 mph94%29.89 "HgN/A
12:25 AM52 °FMostly cloudy.5 mph100%29.89 "HgN/A
11:55 PM
Aug 22
54 °FOvercast.6 mph94%29.89 "HgN/A
11:25 PM54 °FOvercast.7 mph94%29.89 "HgN/A
10:55 PM54 °FMostly cloudy.6 mph94%29.89 "HgN/A
10:25 PM54 °FMostly cloudy.3 mph94%29.89 "HgN/A
9:55 PM54 °FPassing clouds.7 mph94%29.89 "HgN/A
9:25 PM54 °FCool.6 mph88%29.86 "HgN/A
8:55 PM57 °FPassing clouds.6 mph82%29.86 "HgN/A
8:25 PM59 °FPartly sunny.9 mph77%29.86 "HgN/A
7:55 PM61 °FPartly sunny.9 mph77%29.86 "HgN/A
7:25 PM61 °FCloudy.9 mph83%29.83 "HgN/A
6:56 PM61 °FPartly sunny.10 mph83%29.83 "HgN/A
6:55 PM61 °FBroken clouds.10 mph83%29.83 "HgN/A
6:25 PM61 °FMostly cloudy.12 mph83%29.83 "HgN/A
Weather by CustomWeather, © 2014

See weather overviewHow to use our weather pages